Regional Weather Roundup
Issued by NWS

Home | Current Version | Previous Version | Graphics & Text | Print | Product List | Glossary On
Versions: 1 2 3 4 5 6 7 8 9 10 11 12 13 14 15 16 17 18 19 20 21 22 23 24 25 26 27 28 29 30 31 32 33 34 35 36 37 38 39 40 41 42 43 44 45 46 47 48 49 50
000
ASUS43 KMKX 200900
RWRWI

WISCONSIN REGIONAL WEATHER ROUNDUP
NATIONAL WEATHER SERVICE MILWAUKEE/SULLIVAN WI
400 AM CDT MON OCT 20 2014

NOTE: "FAIR" INDICATES FEW OR NO CLOUDS BELOW 12,000 FEET WITH NO
SIGNIFICANT WEATHER AND/OR OBSTRUCTIONS TO VISIBILITY.

WIZ001-002-006>008-014>016-023>028-201000-
NORTHWEST WISCONSIN

CITY           SKY/WX    TMP DP  RH WIND       PRES   REMARKS
SUPERIOR ARPT  CLEAR     41  39  93 W3        29.86R
ASHLAND        CLOUDY    44  41  89 CALM      29.85R
HAYWARD        MOCLDY    38  36  92 S3        29.85R
SIREN          FAIR      40  38  91 CALM      29.87S
CUMBERLAND     CLEAR     43  37  81 NW5       29.86R
RICE LAKE      CLEAR     45  40  83 W5        29.87R
CHETEK         CLEAR     45  41  88 CALM      29.85R
LADYSMITH      CLEAR     44  39  85 NW5       29.85R
EAU CLAIRE     NOT AVBL
MENOMONIE      CLEAR     48  41  78 W5        29.87R
NEW RICHMOND   CLEAR     46  40  81 NW6       29.89R
OSCEOLA        CLEAR     46  40  81 CALM      29.92R
$$

WIZ003>005-009-010-017-018-201000-
NORTH CENTRAL WISCONSIN

CITY           SKY/WX    TMP DP  RH WIND       PRES   REMARKS
MANITOWISH WTR CLOUDY    45  42  92 NW5       29.79S
ARBOR VITAE    CLOUDY    47  43  86 NW7       29.79R
WOODRUFF       CLOUDY    47  43  86 NW7       29.79R
RHINELANDER    CLOUDY    46  42  86 NW6       29.79R
EAGLE RIVER    CLOUDY    43  43 100 CALM      29.78R
LAND O LAKES   CLOUDY    47  43  87 N3        29.79R
PHILLIPS       FAIR      40  40  99 CALM      29.80S
TOMAHAWK       CLEAR     41  39  95 CALM      29.80R
MEDFORD        CLEAR     44  41  90 N8        29.81R
MERRILL        CLEAR     33  33 100 CALM      29.79R
$$

WIZ029-030-035-036-043>047-201000-
CENTRAL WISCONSIN

CITY           SKY/WX    TMP DP  RH WIND       PRES   REMARKS
WAUSAU         CLEAR     42  41  96 NW5       29.78R
MOSINEE        PTCLDY    43  43 100 NW9       29.79R
MARSHFIELD     CLEAR     48  43  82 NW15      29.80R
STEVENS POINT  PTCLDY    36  36  97 CALM      29.78S
WAUPACA        FOG       40  39  96 CALM      29.77S VSB 1/4
WAUTOMA        NOT AVBL
WISC RAPIDS    PTCLDY    40  38  93 NW7       29.80R
CAMP DOUGLAS   NOT AVBL
$$

WIZ011>013-019>022-031-037>040-048>050-201000-
NORTHEAST WISCONSIN

CITY           SKY/WX    TMP DP  RH WIND       PRES   REMARKS
ANTIGO         FOG       33  33 100 CALM      29.77R VSB 1
SHAWANO          N/A     39  37  93 CALM      29.76S FOG
OCONTO         CLEAR     40  40 100 CALM      29.74S
STURGEON BAY   CLEAR     46  43  87 W6        29.74F
GREEN BAY      CLEAR     44  42  93 SW3       29.76R
MANITOWOC      NOT AVBL
APPLETON       CLEAR     41  39  93 W6        29.77R
CLINTONVILLE   MOCLDY    36  36 100 CALM      29.76S FOG
OSHKOSH        CLEAR     47  42  83 W5        29.76S
$$

WIZ032>034-041-042-053>061-201000-
SOUTHWEST WISCONSIN

CITY           SKY/WX    TMP DP  RH WIND       PRES   REMARKS
LA CROSSE      CLEAR     47  41  80 NW7       29.85R
SPARTA         CLEAR     49  41  73 W6          N/A
VIROQUA        CLEAR     47  43  85 NW7       29.83R
BOSCOBEL       CLEAR     45  42  89 CALM      29.83R
PRAIRIE DU CHI CLEAR     47  42  82 NW6       29.84R
PLATTEVILLE    CLEAR     47  44  88 CALM      29.83S
$$

WIZ056-057-062-063-064-067-068-201000-
SOUTH CENTRAL WISCONSIN

CITY           SKY/WX    TMP DP  RH WIND       PRES   REMARKS
REEDSBURG      CLEAR     45  42  91 CALM      29.79R
BARABOO/DELLS  CLEAR     47  41  81 W3        29.78S
LONE ROCK      NOT AVBL
MINERAL POINT  CLEAR     48  43  81 W7        29.81S
MADISON        CLEAR     46  43  89 CALM      29.78S
MIDDLETON      CLEAR     50  43  76 W3        29.78F
WATERTOWN      CLEAR     44  43  95 CALM      29.78S
MONROE         CLEAR     46  43  87 W14       29.79S
JANESVILLE     CLEAR     45  41  87 SW5       29.79F
$$

WIZ051-052-058>065-066-070>072-201000-
SOUTHEAST WISCONSIN

CITY           SKY/WX    TMP DP  RH WIND       PRES   REMARKS
MILWAUKEE      PTCLDY    49  42  77 SW6       29.78F
WAUKESHA       CLEAR     46  41  81 SW5       29.80F
MILWAUKEE/TIMM CLEAR     45  39  81 SW5       29.78F
RACINE         CLEAR     50  42  74 SW10      29.79F
BURLINGTON     PTCLDY    44  41  89 SW3       29.80F
KENOSHA        CLEAR     49  43  80 SW9       29.79F
FOND DU LAC    CLEAR     46  41  82 CALM      29.77S
SHEBOYGAN      CLEAR     45  41  86 W6        29.76F
WEST BEND      CLEAR     46  41  81 CALM      29.77F
JUNEAU         CLEAR     42  40  90 S3        29.78F
$$

LSZ147-162-201000-
LAKE SUPERIOR

STATION/POSITION TIME  TEMP    WIND        PRES    WAVE
                       AIR SEA DIR/SP/G            HT/PER
                 (UTC) (F)     (DEG/KT/KT) (MB)    (FT/S)
W MID LAKE BUOY  0750   48 46  350/  4/  6 1009.0R   1
DEVILS ISLAND    0800   51     340/ 11/ 12 1010.1R
PORT WING        0800   51     310/  5/  7 1010.5R
SAXON HARBOR     0800   51     300/  6/  9 1009.8R
$$

LMZ867-665-643>646-201000-
LAKE MICHIGAN

STATION/POSITION TIME  TEMP    WIND        PRES    WAVE
                       AIR SEA DIR/SP/G            HT/PER
                 (UTC) (F)     (DEG/KT/KT) (MB)    (FT/S)
CHAMBERS ISLAND  0800   51     230/  5/  8 1007.1S
N MID LAKE BUOY  0750   52 52  240/ 14/ 16 1006.9R   6/ 7
NORTHPORT PIER   0800   53     260/  4/  8 1007.1S
KEWAUNEE LAKESHO 0800   47     300/  7/  8 1006.4F
SHEBOYGAN LAKESH 0800   52 51  260/ 10/ 12 1008.0F
PORT WASHINGTON  0800   52     260/ 10/ 13 1008.8F
ATWATER BUOY     0800   53     230/ 16/ 19 1009.6F
MILWAUKEE LAKESH 0800   52     250/ 14/ 16   N/A
S MID LAKE BUOY  0750   55 55  220/ 19/ 25 1009.1F   4/ 6
KENOSHA   LAKESH 0800   53     240/ 13/ 19 1009.1F
$$

TC  - TEMPERATURE IN CELSIUS
VSB - VISIBILITY IN STATUTE MILES
WCI - WIND CHILL INDEX
HX  - HEAT INDEX




USA.gov is the U.S. government's official web portal to all federal, state and local government web resources and services.